| time (UTC) | temp F | wind direction | speed knots | gust knots | rain 1hr in | rain 24hr in | rain mn in | humidity % | barometer mb |
| 20260503010017 | 44 | 352 | 0.0 | 0.0 | 0.00 | 0.00 | 0.00 | 56 | 1016.9 |
| 20260503004518 | 45 | 352 | 0.0 | 0.0 | 0.00 | 0.00 | 0.00 | 54 | 1016.8 |
| 20260503003022 | 46 | 352 | 0.0 | 0.0 | 0.00 | 0.00 | 0.00 | 51 | 1016.8 |
| 20260503001520 | 46 | 352 | 0.0 | 1.7 | 0.00 | 0.00 | 0.00 | 47 | 1016.7 |
| 20260503000022 | 47 | 321 | 0.0 | 1.7 | 0.00 | 0.00 | 0.00 | 47 | 1016.6 |
| 20260502234530 | 47 | 9 | 0.9 | 3.5 | 0.00 | 0.00 | 0.00 | 46 | 1016.6 |
| 20260502233023 | 47 | 287 | 2.6 | 3.5 | 0.00 | 0.00 | 0.00 | 44 | 1016.6 |
| 20260502231528 | 47 | 343 | 0.9 | 4.3 | 0.00 | 0.00 | 0.00 | 46 | 1016.7 |
| 20260502230024 | 47 | 25 | 2.6 | 7.0 | 0.00 | 0.00 | 0.00 | 44 | 1016.7 |
| 20260502224523 | 48 | 325 | 1.7 | 5.2 | 0.00 | 0.00 | 0.00 | 43 | 1016.7 |
| 20260502223025 | 48 | 234 | 2.6 | 6.1 | 0.00 | 0.01 | 0.00 | 41 | 1016.6 |
| 20260502221525 | 48 | 304 | 2.6 | 4.3 | 0.00 | 0.01 | 0.00 | 45 | 1016.7 |
| 20260502220026 | 48 | 11 | 2.6 | 7.8 | 0.00 | 0.01 | 0.00 | 43 | 1016.8 |
| 20260502214525 | 48 | 32 | 1.7 | 9.6 | 0.00 | 0.01 | 0.00 | 45 | 1016.7 |
| 20260502213036 | 48 | 321 | 1.7 | 8.7 | 0.00 | 0.01 | 0.00 | 42 | 1016.7 |
| 20260502211513 | 48 | 5 | 2.6 | 7.8 | 0.00 | 0.01 | 0.00 | 43 | 1016.8 |
| 20260502210013 | 48 | 31 | 2.6 | 7.0 | 0.00 | 0.01 | 0.00 | 44 | 1016.9 |
| 20260502204511 | 47 | 283 | 1.7 | 6.1 | 0.00 | 0.01 | 0.00 | 43 | 1017.0 |
| 20260502203012 | 47 | 55 | 3.5 | 7.8 | 0.00 | 0.01 | 0.00 | 44 | 1017.0 |
| 20260502201536 | 47 | 13 | 3.5 | 11.3 | 0.00 | 0.01 | 0.00 | 43 | 1017.3 |
| 20260502200014 | 48 | 207 | 2.6 | 7.0 | 0.00 | 0.01 | 0.00 | 45 | 1017.3 |
| 20260502194515 | 48 | 352 | 3.5 | 8.7 | 0.00 | 0.01 | 0.00 | 43 | 1017.4 |
| 20260502193018 | 47 | 311 | 4.3 | 7.8 | 0.00 | 0.01 | 0.00 | 43 | 1017.6 |
| 20260502191522 | 47 | 352 | 2.6 | 7.0 | 0.00 | 0.01 | 0.00 | 45 | 1017.8 |
| 20260502190021 | 47 | 242 | 1.7 | 7.8 | 0.00 | 0.01 | 0.00 | 46 | 1018.0 |
| 20260502184520 | 47 | 317 | 4.3 | 10.4 | 0.00 | 0.01 | 0.00 | 43 | 1018.1 |
| 20260502183028 | 47 | 317 | 3.5 | 8.7 | 0.00 | 0.01 | 0.00 | 45 | 1018.1 |
| 20260502181524 | 46 | 346 | 0.9 | 7.8 | 0.00 | 0.01 | 0.00 | 46 | 1018.2 |
| 20260502163028 | 46 | 30 | 3.5 | 9.6 | 0.00 | 0.03 | 0.00 | 50 | 1018.8 |
| 20260502161526 | 46 | 332 | 3.5 | 9.6 | 0.00 | 0.03 | 0.00 | 49 | 1018.8 |
| 20260502151514 | 45 | 347 | 3.5 | 9.6 | 0.00 | 0.03 | 0.00 | 54 | 1018.7 |
| 20260502123023 | 38 | 9 | 3.5 | 6.1 | 0.00 | 0.04 | 0.00 | 78 | 1018.3 |
| 20260502121530 | 36 | 19 | 2.6 | 6.1 | 0.00 | 0.04 | 0.00 | 83 | 1018.3 |
| 20260502114529 | 34 | 5 | 0.9 | 2.6 | 0.00 | 0.04 | 0.00 | 91 | 1018.1 |
| 20260502113005 | 33 | 352 | 0.0 | 0.9 | 0.00 | 0.04 | 0.00 | 90 | 1018.0 |
| 20260502111507 | 33 | 352 | 0.9 | 1.7 | 0.00 | 0.04 | 0.00 | 89 | 1018.0 |
| 20260502110010 | 33 | 352 | 0.0 | 0.0 | 0.00 | 0.05 | 0.00 | 88 | 1017.9 |
| 20260502104505 | 34 | 352 | 0.0 | 1.7 | 0.00 | 0.07 | 0.00 | 88 | 1017.8 |
| 20260502103013 | 34 | 340 | 0.0 | 1.7 | 0.00 | 0.10 | 0.00 | 86 | 1017.6 |
| 20260502101509 | 35 | 88 | 0.0 | 0.0 | 0.00 | 0.13 | 0.00 | 85 | 1017.5 |
| 20260502091518 | 37 | 88 | 0.0 | 0.0 | 0.00 | 0.18 | 0.00 | 81 | 1017.3 |
| 20260502071522 | 39 | 337 | 0.9 | 3.5 | 0.00 | 0.20 | 0.00 | 80 | 1016.6 |
| 20260502070037 | 39 | 338 | 1.7 | 6.1 | 0.00 | 0.21 | 0.00 | 79 | 1016.7 |
| 20260502064523 | 39 | 352 | 0.9 | 7.0 | 0.00 | 0.22 | 0.00 | 78 | 1016.8 |
| 20260502063031 | 39 | 324 | 0.9 | 6.1 | 0.00 | 0.22 | 0.00 | 78 | 1016.8 |
| 20260502061508 | 40 | 321 | 1.7 | 5.2 | 0.00 | 0.22 | 0.00 | 78 | 1016.9 |
| 20260502060016 | 40 | 328 | 1.7 | 2.6 | 0.00 | 0.22 | 0.00 | 78 | 1016.9 |
| 20260502054503 | 40 | 311 | 1.7 | 7.0 | 0.00 | 0.22 | 0.00 | 79 | 1017.0 |
| 20260502053003 | 40 | 340 | 1.7 | 3.5 | 0.00 | 0.22 | 0.00 | 79 | 1017.1 |
| 20260502051505 | 39 | 352 | 0.9 | 3.5 | 0.00 | 0.23 | 0.00 | 81 | 1017.2 |
| 20260502050012 | 38 | 315 | 0.9 | 2.6 | 0.00 | 0.23 | 0.00 | 85 | 1017.2 |
| 20260502044504 | 38 | 292 | 0.0 | 1.7 | 0.00 | 0.24 | 0.00 | 88 | 1017.2 |
| 20260502043004 | 38 | 352 | 0.0 | 0.0 | 0.00 | 0.24 | 0.00 | 87 | 1017.2 |
| 20260502041507 | 38 | 352 | 0.0 | 0.0 | 0.00 | 0.24 | 0.00 | 85 | 1017.1 |
| 20260502040005 | 39 | 352 | 0.0 | 0.0 | 0.00 | 0.24 | 0.00 | 84 | 1017.0 |
| 20260502034504 | 40 | 352 | 0.0 | 0.0 | 0.00 | 0.24 | 0.24 | 84 | 1016.8 |
| 20260502033005 | 41 | 352 | 0.0 | 0.0 | 0.00 | 0.24 | 0.24 | 85 | 1016.8 |
| 20260502031505 | 40 | 352 | 0.0 | 1.7 | 0.00 | 0.24 | 0.24 | 86 | 1016.8 |
| 20260502030004 | 40 | 23 | 0.0 | 0.0 | 0.00 | 0.24 | 0.24 | 87 | 1016.8 |
| 20260502024507 | 40 | 23 | 0.0 | 0.0 | 0.00 | 0.24 | 0.24 | 86 | 1016.8 |
| 20260502023020 | 40 | 23 | 0.0 | 0.0 | 0.00 | 0.24 | 0.24 | 85 | 1016.7 |
| 20260502021505 | 40 | 24 | 0.0 | 1.7 | 0.00 | 0.24 | 0.24 | 84 | 1016.5 |
| 20260502020006 | 41 | 24 | 0.0 | 0.0 | 0.00 | 0.24 | 0.24 | 83 | 1016.4 |
| 20260502014507 | 41 | 24 | 0.0 | 1.7 | 0.00 | 0.24 | 0.24 | 82 | 1016.2 |
| 20260502013005 | 41 | 352 | 0.0 | 1.7 | 0.00 | 0.24 | 0.24 | 81 | 1015.9 |
| 20260502011508 | 42 | 344 | 0.0 | 3.5 | 0.00 | 0.24 | 0.24 | 80 | 1015.9 |